www.pogodaiklimat.ru
ПОГОДА в Санта-Росе
Время
и дата
14:53 19.07
15:53 19.07
16:28 19.07
16:53 19.07
17:53 19.07
18:53 19.07
19:53 19.07
20:53 19.07
21:53 19.07
22:53 19.07
23:53 19.07
00:53 20.07
01:53 20.07
02:53 20.07
03:53 20.07
04:53 20.07
05:53 20.07
06:53 20.07
07:53 20.07
08:53 20.07
09:53 20.07
10:53 20.07
11:53 20.07
12:53 20.07
13:53 20.07
14:53 20.07
15:53 20.07
16:53 20.07
17:53 20.07
18:39 20.07
18:53 20.07
19:53 20.07
20:53 20.07
21:53 20.07
22:53 20.07
23:53 20.07
00:53 21.07
01:53 21.07
02:53 21.07
03:53 21.07
04:53 21.07
05:02 21.07
05:11 21.07
05:30 21.07
05:53 21.07
06:53 21.07
07:12 21.07
07:26 21.07
Ветер
(напр.,м/с)
Видим. Явления Облачность Т
(С)
Тd
(С)
f
(%)
Тe
(С)
Тes
(С)
Комфортность P
(гПа)
Po
(гПа)
Тmin
(С)
Tmax
(С)
R
(мм)
R24
(мм)
S
(см)
Ю 4 16 км ясно +40.0 +10.6 17 +39 +50 очень
жарко
1011.5 1007.5
ЮВ 4 16 км ясно +40.0 +10.6 17 +39 +47 очень
жарко
1011.1 1007.2 +27.8 +40.6
СЗ 6 16 км ясно +40.6 +10.0 16 +39 +42 очень
жарко
1006.8
СЗ 7 16 км ясно +40.6 +6.1 12 +38 +40 очень
жарко
1010.5 1006.5
СЗ 6 16 км ясно +37.8 +6.1 14 +35 +37 очень
жарко
1010.5 1006.5
СЗ 5 16 км ясно +35.0 +5.6 16 +32 +33 жарко 1010.9 1006.8
Ю 4 16 км ясно +27.2 +10.6 35 +28 +28 жарко 1011.3 1007.2
Ю 4 16 км ясно +22.8 +10.6 46 +25 +25 комфорт 1012.3 1008.5
ЮВ 4 16 км ясно +19.4 +11.1 59 +21 +21 комфорт 1012.6 1008.9 +19.4 +41.1
Ю 3 16 км ясно +17.8 +11.1 65 +18 +18 1012.6 1008.5
Ю 2 16 км ясно +16.1 +11.1 72 +16 +16 1011.9 1007.9
Ю 2 16 км ясно +15.0 +11.1 77 +15 +15 1011.5 1007.5
Ю 2 16 км ясно +14.4 +11.1 81 +14 +14 1011.7 1007.9
Ю 2 16 км ясно +13.9 +11.1 83 +13 +13 1011.6 1007.9
штиль 0 16 км ясно +13.9 +11.1 83 +14 +14 1011.6 1007.5 +13.9 +19.4
штиль 0 16 км ясно +13.3 +11.1 87 +13 +13 1011.8 1007.9
штиль 0 13 км ясно +13.3 +11.1 87 +13 +13 1012.3 1008.5
штиль 0 14 км ясно +16.1 +11.7 75 +16 +17 1012.9 1008.9
штиль 0 16 км ясно +19.4 +12.2 63 +21 +25 комфорт 1013.1 1009.2
Ю 2 16 км мгла ясно +22.8 +12.2 51 +25 +32 комфорт 1013.2 1009.2
Ю 2 16 км мгла ясно +26.7 +12.8 42 +28 +40 жарко 1012.9 1008.9 +12.8 +26.7
ЮЗ 3 16 км мгла ясно +29.4 +12.8 36 +31 +44 жарко 1012.5 1008.5
нст 2 16 км мгла ясно +32.2 +13.3 32 +33 +52 опасность
солнечного
удара
1012.1 1008.2
ЮЗ 3 16 км дым ясно +33.3 +13.9 31 +34 +51 опасность
солнечного
удара
1011.6 1007.5
ЮВ 4 16 км дым ясно +35.6 +15.0 29 +37 +50 душно 1011.1 1007.2
ЮВ 5 16 км дым ясно +35.0 +14.4 29 +36 +45 очень
жарко
1010.5 1006.5
ЮВ 5 16 км дым ясно +32.8 +14.4 33 +34 +41 очень
жарко
1010.2 1006.2 +26.7 +35.6
Ю 4 16 км дым ясно +32.8 +14.4 33 +34 +40 очень
жарко
1009.8 1005.8
Ю 4 16 км ясно +31.1 +15.0 38 +33 +36 душно 1010.0 1006.2
Ю 2 16 км ясно +28.9 +14.4 41 +31 +32 жарко 1006.5
Ю 2 16 км ясно +27.8 +14.4 44 +30 +32 жарко 1010.7 1006.8
Ю 4 16 км ясно +23.9 +13.9 54 +26 +26 жарко 1011.3 1007.2
Ю 4 16 км ясно +18.9 +12.2 65 +20 +20 1011.8 1007.9
Ю 4 16 км ясно +16.7 +11.7 72 +16 +16 1012.1 1008.2 +16.7 +33.9
Ю 2 16 км ясно +15.6 +11.7 78 +16 +16 1012.1 1008.2
ЮВ 3 16 км ясно +15.0 +11.7 81 +14 +14 1012.1 1008.2
ЮВ 2 16 км ясно +13.9 +11.7 87 +13 +13 1012.1 1008.2
Ю 2 16 км ясно +13.3 +11.7 90 +13 +13 1012.2 1008.2
штиль 0 16 км ясно +12.2 +11.7 97 +12 +12 1012.0 1008.2
Ю 2 16 км ясно +11.7 +11.1 96 +10 +10 1012.3 1008.2 +11.7 +16.7
штиль 0 16 км ясно +11.7 +11.1 96 +11 +11 1012.5 1008.5
штиль 0 16 км 5/5 150 м +11.7 +11.1 96 +11 +11 1008.5
Ю 2 16 км 8/8 150 м +11.7 +11.1 96 +10 +10 1008.9
Ю 3 14 км 10/10 120 м +11.7 +11.7 100 +10 +10 1008.9
Ю 3 5 км 10/10 90 м +11.7 +11.7 100 +10 +10 1013.0 1009.2
нст 2 5 км дымка 10/10 90 м +12.2 +12.2 100 +11 +11 1013.4 1009.5
ЮВ 3 16 км 8/8 150 м +13.3 +12.2 93 +12 +12 1009.5
Ю 2 16 км 5/5 150 м +13.3 +11.7 90 +13 +14 1009.5
Местоположение метеостанции Santa Rosa Sonoma County Airport: широта 38.5000 долгота -122.8167 высота над уровнем моря 38 м.
В архиве по умолчанию представлена погода в Санта-Росе за последние 1-2 суток. Обновление информации о фактической погоде в базе происходит ежечасно! Архивные данные за месяц целиком и за предыдущие месяцы Вы можете получить, выбрав интересующий диапазон дат из раскрывающегося списка и нажав кнопку "Ввод!".
Внимание! Архив погоды МЕТАР в базе сайта по станциям, не включенным в климатический монитор, хранится не более 60 дней. Нет смысла пытаться выбрать более раннюю дату.
*Определитесь, кто Вы:
Внимание! Время в таблицах - местное (без учета летнего времени). Для получения всемирного времени необходимо вычесть поправку, которая равна -8 ч.
Смотрите также архив погоды в соседних городах и на ближайших метеорологических станциях:
Партнеры нашего сайта:      
Пояснения к столбцам:
  • Ветер - указаны скорость ветра в м/с - средняя за 10 мин, порывы в срок и между сроками (в фигурных скобках) и направление, откуда дует ветер: С - северный,
  • СВ - северо-восточный, В - восточный, ЮВ - юго-восточный, Ю - южный, ЮЗ - юго-западный, З - западный, СЗ - северо-западный.
  • Видимость - горизонтальная дальность видимости в метрах или километрах. При видимости от 1 до 10 км при отсутствии осадков обычно наблюдается дымка, при ухудшении видимости до 1 км и менее - туман. В сухую погоду видимость может ухудшаться дымом, пылью или мглою.
  • Явления - указаны атмосферные явления, наблюдавшиеся в срок или в последний час перед сроком; фигурными скобками обозначены явления, наблюдавшиеся между сроками (за 1-3 часа до срока); квадратными скобками обозначены град или гололедные отложения с указанием их диаметра в мм.
  • Облачность - указаны через наклонную черту общая и нижняя облачность в баллах и высота нижней границы облаков в метрах; квадратными скобками обозначены формы облаков: Ci - перистые, Cs - перисто-слоистые, Cc - перисто-кучевые, Ac - высококучевые, As - высокослоистые, Sc - слоисто-кучевые, Ns - слоисто-дождевые, Cu - кучевые, Cb - кучево-дождевые. Подробнее классификацию облаков см. в Атласе облаков (PDF).
  • T - Температура воздуха - температура, измеренная на высоте 2 м над землей.
  • Td - Температура точки росы - температура, при понижении до которой содержащийся в воздухе водяной пар достигнет насыщения.
  • f - Относительная влажность воздуха - влажноcть воздуха, измеренная на высоте 2 м над землей.
  • Te - Эффективная температура - температура, которую ощущает одетый по сезону человек в тени. Характеристика душности погоды. При расчете учитывается влияние влажности воздуха и скорости ветра на теплоощущения человека.
  • Tes - Эффективная температура на солнце - температура, которую ощущает человек, с поправкой на солнечный нагрев. Характеристика знойности погоды. Зависит от высоты солнца над горизонтом, облачности и скорости ветра. Ночью, в пасмурную погоду, а также при ветре 12 м/с и более поправка равна нулю.
  • P - Атмосферное давление - приведенное к уровню моря атмосферное давление.
  • Po - Атмосферное давление - измеренное на уровне метеостанции атмосферное давление.
  • Tmin - Минимальная температура - минимум температуры воздуха на высоте 2 м над землей.
  • Tmax - Максимальная температура - максимум температуры воздуха на высоте 2 м над землей.
  • R - Количество осадков - Количество выпавших осадков за период времени, мм. При наведении курсора мыши на число - период времени, за который выпало указанное количество осадков.
  • R24 - Количество осадков - Количество выпавших осадков за 24 часа, мм.
  • S - Снежный покров - Высота снежного покрова, см. При наведении курсора мыши на число - состояние снежного покрова и степень покрытия местности в баллах.